FENGYUN 1C DEB

Satellite information

Favourite Embed

Satellite Type and Status

DEBRISIN ORBIT

Key statistics

Satellite FENGYUN 1C DEB at a glance.

Uptime

9555

Days in orbit

Revolutions

≈ 14.1

Per day

Orbit

SSO

Sun Synchronous Orbit

Inclination

99.3

Latest

Satellite identification and parameters

Extended collection of information and parameters for FENGYUN 1C DEB.

Object identification

Identified? True

Debris? True

Object name: FENGYUN 1C DEB

International designator: 1999-025TA

Object number (NORAD): 30145

Object ID (CCSDS): 30145

Country: PEOPLES REPUBLIC OF CHINA (PRC)

Current information (Y/N): Y

RCS size: SMALL

Orbital parameters

Period: 101.986 minutes

Inclination: 99.2682 deg

SMA: 7230.801 km

Apoapsis: 919.223 km

Periapsis: 786.108 km

RAAN: 290.8747 deg

Eccentricy: 0.0092047

Argument of periapsis: 232.8589 deg

Mean anomaly: 240.4314 deg

Mean motion: 14.11962554 rev/day

Mean motion (dot): 0.00003916 rev/day2

B* drag term: 0.0020811 1/REarth

Two-line elements (TLE)

Creation date: July 6, 2025, 4:10 a.m.

Reference frame: TEME

Reference center: EARTH

Epoch: July 5, 2025, 8:58 p.m. UTC

TLE line 0: 0 FENGYUN 1C DEB

TLE line 1: 1 30145U 99025TA 25186.87410308 .00003916 00000-0 20811-2 0 9994

TLE line 2: 2 30145 99.2682 290.8747 0092047 232.8589 240.4314 14.11962554939385

Live tracking on map

Real-time ground track for satellite FENGYUN 1C DEB.

In-orbit conjunctions

A list of the most updated potential collisions computed for object FENGYUN 1C DEB.

Target Orbit TCA Probability of collision Miss distance Type
METEOR 2-20 DEB LEO 2024-12-09 01:32:11 0.0005592607 248.0 (m) DEBRIS
FENGYUN 1C DEB SSO 2024-11-10 07:49:10 0.0001548954 986.0 (m) DEBRIS

Associated space launch

Chinese polar orbiting meteorological satellite

FENGYUN 1C DEB was lifted into orbit during the mission ‘Long March 4B | Feng Yun 1C’, on board a Long March 4B space rocket.

The launch took place on May 10, 1999, 1:33 a.m. from Launch Complex 7.

For more information about the launch, click the button.

Launch to space Long March 4B | Feng Yun 1C
Long March 4B | Feng Yun 1C

Agency: N/A

Status: Launch Successful

Launch date: May 10, 1999, 1:33 a.m. UTC

Rocket: Long March 4B

Launch pad: Launch Complex 7

Location: Taiyuan Satellite Launch Center, People's Republic of China

...

Latest news about this satellite

There are no fresh news available about this satellite. Check back as we update our databases every day.


Newsletter sign-up

Weekly statistics, charts and insights to help you stay on top of the space industry.